Flag Weather past 2 weeks in Öhringen, Baden-Württemberg, Germany

Now
43 °F

Overcast.


Feels Like: 43 °F
Forecast: 34 / 44 °F
Wind: 2 mph from Northeast

Location: Oehringen

Current Time: Nov 24, 2014 at 5:09:30 AM

Latest Report: Nov 24, 2014 at 4:00 AM


Visibility: 16 mi

Pressure: 30.13 "Hg

Humidity: 89%

Dew point: 40 °F

Location of ÖhringenLocation

Historic Weather in Öhringen — Graph

°F

Öhringen temperature yesterday

Maximum temperature yesterday: 53 °F (at 2:00 PM)
Minimum temperature yesterday: 37 °F (at 8:00 AM)
Average temperature yesterday: 43 °F

Past Weeks' High & Low Weather Summary

 TemperatureHumidityPressure
High54 °F (Nov 22, 2:00 PM)100% (Nov 13, 6:00 AM)30.35 "Hg (Nov 13, 6:00 AM)
Low36 °F (Nov 21, 8:00 AM)66% (Nov 9, 1:00 PM)29.50 "Hg (Nov 16, 1:00 AM)
Average45 °F91%29.92 "Hg
* Reported Nov 9 4:00 AM — Nov 24 4:00 AM, Öhringen, Weather by CustomWeather, © 2014

Note: Actual official high and low records may vary slightly from our data, if they occured in-between our weather recording intervals... More about our weather records

Advertising

Öhringen weather history for previous 24 hours

 ConditionsComfort  
Time TempWeatherWind HumidityBarometerVisibility
4:00 AM
Nov 24
43 °FOvercast.2 mph89%30.13 "Hg16 mi
3:00 AM44 °FOvercast.3 mph89%30.13 "Hg17 mi
2:00 AM44 °FOvercast.3 mph89%30.14 "Hg14 mi
1:00 AM44 °FOvercast.2 mph89%30.14 "Hg14 mi
12:00 AM43 °FOvercast.2 mph89%30.14 "Hg12 mi
11:00 PM
Nov 23
43 °FOvercast.2 mph87%30.14 "Hg12 mi
10:00 PM42 °FOvercast.2 mph88%30.15 "Hg11 mi
9:00 PM41 °FClear.5 mph90%30.15 "Hg9 mi
8:00 PM41 °FClear.3 mph90%30.15 "Hg9 mi
7:00 PM42 °FClear.3 mph90%30.14 "Hg7 mi
6:00 PM43 °FClear.5 mph89%30.14 "Hg10 mi
5:00 PM45 °FClear.3 mph89%30.15 "Hg9 mi
4:00 PM47 °FSunny.5 mph83%30.15 "Hg12 mi
3:00 PM50 °FSunny.5 mph79%30.15 "Hg14 mi
2:00 PM53 °FSunny.5 mph72%30.15 "Hg15 mi
1:00 PM53 °FSunny.3 mph70%30.18 "Hg12 mi
12:00 PM51 °FSunny.3 mph72%30.20 "Hg11 mi
11:00 AM47 °FSunny.3 mph77%30.23 "Hg10 mi
10:00 AM43 °FSunny.3 mph82%30.23 "Hg6 mi
9:00 AM39 °FFog.2 mph90%30.24 "Hg4 mi
8:00 AM37 °FFog.2 mph95%30.24 "Hg3 mi
7:00 AM38 °FFog.3 mph94%30.22 "Hg3 mi
6:00 AM38 °FFog.5 mph95%30.22 "Hg2 mi
5:00 AM38 °FFog.2 mph96%30.22 "Hg2 mi
Weather by CustomWeather, © 2014

See weather overviewHow to use our weather pages